Regional Weather Roundup
Issued by NWS

Home | Current Version | Previous Version | Graphics & Text | Print | Product List | Glossary On
Versions: 1 2 3 4 5 6 7 8 9 10 11 12 13 14 15 16 17 18 19 20 21 22 23 24 25 26 27 28 29 30 31 32 33 34 35 36 37 38 39 40 41 42 43 44 45 46 47 48 49 50
000
ASUS43 KOAX 280302
RWRNE

WEATHER ROUNDUP FOR NEBRASKA
NATIONAL WEATHER SERVICE OMAHA NE
900 PM CST SAT DEC 27 2014

NOTES: SATELLITE DATA IS BEING USED TO AUGMENT CLOUD COVER ABOVE
       12000 FEET.
       "FAIR" INDICATES FEW OR NO CLOUDS BELOW 12,000 FEET WITH NO
       SIGNIFICANT WEATHER AND/OR OBSTRUCTIONS TO VISIBILITY.

  * THESE STATIONS DO NOT REPORT WEATHER SUCH AS RAIN...SNOW OR FOG.

NEZ001>004-019>022-054>056-280400-
NEBRASKA PANHANDLE

CITY           SKY/WX    TMP DP  RH WIND       PRES   REMARKS
SCOTTSBLUFF    PTCLDY     8   5  87 NW7       30.09F WCI  -3
ALLIANCE       CLEAR      0  -4  83 W10       30.07S WCI -16
CHADRON        CLEAR      7   1  76 SW8       30.09R WCI  -6
KIMBALL        PTCLDY     3  -3  76 W8        30.06S WCI -11
SIDNEY         PTCLDY     8   0  69 W13       30.10F WCI  -8
$$

NEZ057>060-069>072-079>082-280400-
SOUTHWEST NEBRASKA

CITY           SKY/WX    TMP DP  RH WIND       PRES   REMARKS
NORTH PLATTE   PTCLDY     5   3  91 W7        30.16S WCI  -7
IMPERIAL       PTCLDY    11   5  77 W9        30.15F WCI  -2
LEXINGTON      CLEAR     13  10  85 W10       30.17S WCI   0
MCCOOK         CLEAR     15  10  80 W9        30.19R WCI   3
OGALLALA       PTCLDY     3   0  87 W6        30.14F WCI  -8
$$

NEZ005>010-023>029-035>040-094-280400-
NORTH CENTRAL NEBRASKA

CITY           SKY/WX    TMP DP  RH WIND       PRES   REMARKS
VALENTINE      PTCLDY    10   5  80 W9        30.09S WCI  -3
AINSWORTH      CLEAR     17  10  74 W10       30.09S WCI   4
BROKEN BOW     CLEAR     18  12  77 W8        30.14S WCI   8
O`NEILL        CLEAR      9   8  95 SW7       30.12S WCI  -2
ORD            CLEAR     12   9  87 CALM      30.14F
$$

NEZ041-046>049-061>064-073>077-083>087-280400-
SOUTH CENTRAL NEBRASKA

CITY           SKY/WX    TMP DP  RH WIND       PRES   REMARKS
GRAND ISLAND     N/A     15  10  80 SW7       30.19F WCI   5
AURORA         CLEAR     15  11  86 W7        30.19F WCI   5
HASTINGS       CLEAR     15  11  83 SW5       30.18F WCI   8
HEBRON         CLEAR     17  12  82 SW5       30.25S WCI  10
HOLDREGE       CLEAR     15  11  84 SW5       30.18S WCI   7
KEARNEY *      CLEAR     16  10  79 S8        30.17F WCI   5
YORK           CLEAR     14  10  85 SW8       30.21S WCI   3
$$

NEZ011>018-030>034-042>045-280400-
NORTHEAST NEBRASKA

CITY           SKY/WX    TMP DP  RH WIND       PRES   REMARKS
NORFOLK        PTCLDY    11   7  84 S7        30.16F WCI   0
ALBION         CLEAR     15  11  83 CALM      30.17S
BLAIR          CLEAR     18  14  82 SW6       30.21S WCI  10
COLUMBUS *     CLEAR     16  12  86 W5        30.21F WCI   9
FREMONT        FAIR      19  16  86 CALM      30.21F
TEKAMAH        CLEAR     15  10  80 S7        30.23F WCI   5
WAYNE          CLEAR     10   7  87 SW8       30.18F WCI  -2
$$

NEZ050>053-065>068-078-088>093-280400-
SOUTHEAST NEBRASKA

CITY           SKY/WX    TMP DP  RH WIND       PRES   REMARKS
LINCOLN        CLEAR     15  12  88 S6        30.25F WCI   6
OMAHA EPPLEY   CLEAR     20  15  81 CALM      30.25F
BEATRICE       CLEAR     16  13  87 W5        30.25S WCI   9
FALLS CITY     CLEAR     23  17  78 W5        30.26S WCI  17
NEBRASKA CITY  CLEAR     20  14  78 W5        30.25S WCI  13
PLATTSMOUTH    CLEAR     18  14  82 SW5       30.24S WCI  11
$$

NEZ044-045-051>053-067-280400-
OMAHA AREA

CITY           SKY/WX    TMP DP  RH WIND       PRES   REMARKS
OMAHA EPPLEY   CLEAR     20  15  81 CALM      30.25F
BLAIR          CLEAR     18  14  82 SW6       30.21S WCI  10
FREMONT        FAIR      19  16  86 CALM      30.21F
MILLARD        CLEAR     19  16  89 CALM      30.24S
OFFUTT AFB     CLEAR     16  12  85 S2        30.23F
PLATTSMOUTH    CLEAR     18  14  82 SW5       30.24S WCI  11
WAHOO          FAIR      15  11  85 CALM      30.22F
$$



USA.gov is the U.S. government's official web portal to all federal, state and local government web resources and services.